Ephrata, WA
on Saturday, November 10, 2012

Saturday
Previous Day Next Day
Daily Summary
 ActualAverageRecord
Temperature
Mean Temperature °F 39°F  
Max Temperature 38°F 48°F 67°F (1990)
Min Temperature 22°F 31°F 17°F (1986)
Degree Days
Heating Degree Days 35 26  
Month to date heating degree days 198 238  
Since 1 July heating degree days 693 819  
Cooling Degree Days 0 0  
Month to date cooling degree days 0 0  
Year to date cooling degree days 837 772  
Moisture
Dew Point 26°F   
Average Humidity 75    
Maximum Humidity 85    
Minimum Humidity 64    
Precipitation
Precipitation T in 0.03 in 0.79 in (1983)
Month to date precipitation 0.07 0.31  
Year to date precipitation 5.93 5.86  
Wind
Wind Speed 4 mph   
Max Wind Speed 10 mph   
Max Gust Speed 12 mph   
Visibility 10 miles   
Events     

Key: T is trace of precipitation, MM is missing value
Source: NWS Daily Summary
Time(PST)TemperatureDew PointHumidity Pressure Visibility Wind DirectionWind SpeedGust SpeedPrecipitationEvents Conditions
12:05 AM 33.8°F 28.4°F 81% 29.91 in 10.0 miles NE 4.6 mph - N/A   Overcast
12:36 AM 33.8°F 28.4°F 81% 29.91 in 10.0 miles Calm Calm - N/A   Overcast
12:53 AM 34.0°F 28.9°F 82% 29.95 in 10.0 miles NE 3.5 mph - N/A   Overcast
1:29 AM 33.8°F 28.4°F 81% 29.93 in 10.0 miles Calm Calm - N/A   Overcast
1:53 AM 34.0°F 28.9°F 82% 29.96 in 10.0 miles Calm Calm - N/A   Overcast
2:14 AM 33.8°F 28.4°F 81% 29.94 in 10.0 miles NW 3.5 mph - N/A   Overcast
2:53 AM 34.0°F 26.1°F 73% 29.97 in 10.0 miles NNW 4.6 mph - N/A   Overcast
3:53 AM 33.1°F 24.1°F 70% 29.98 in 10.0 miles North 4.6 mph - N/A   Overcast
4:53 AM 32.0°F 26.1°F 79% 29.99 in 10.0 miles NNE 5.8 mph - N/A   Overcast
5:53 AM 33.1°F 26.1°F 75% 30.01 in 10.0 miles NNW 6.9 mph - N/A   Overcast
6:05 AM 33.8°F 24.8°F 70% 29.98 in 10.0 miles NNW 8.1 mph - N/A   Overcast
6:53 AM 32.0°F 26.1°F 79% 30.03 in 10.0 miles North 9.2 mph - N/A   Overcast
7:19 AM 32.0°F 26.6°F 80% 30.00 in 10.0 miles North 9.2 mph - N/A   Overcast
7:53 AM 32.0°F 27.0°F 82% 30.05 in 10.0 miles North 4.6 mph - N/A   Overcast
8:53 AM 33.1°F 26.1°F 75% 30.06 in 10.0 miles North 6.9 mph - N/A   Overcast
9:09 AM 33.8°F 26.6°F 75% 30.03 in 10.0 miles North 5.8 mph - N/A   Overcast
9:17 AM 33.8°F 26.6°F 75% 30.04 in 10.0 miles North 6.9 mph - N/A   Overcast
9:53 AM 34.0°F 26.1°F 73% 30.08 in 10.0 miles North 5.8 mph - N/A   Overcast
10:53 AM 35.1°F 26.1°F 70% 30.09 in 10.0 miles NNE 5.8 mph - 0.00 in   Overcast
11:53 AM 36.0°F 26.1°F 67% 30.09 in 10.0 miles NE 5.8 mph - N/A   Overcast
12:53 PM 36.0°F 26.1°F 67% 30.11 in 10.0 miles Calm Calm - N/A   Mostly Cloudy
1:04 PM 35.6°F 26.6°F 70% 30.07 in 10.0 miles Calm Calm - N/A   Mostly Cloudy
1:53 PM 36.0°F 26.1°F 67% 30.11 in 10.0 miles East 3.5 mph - N/A   Mostly Cloudy
2:53 PM 37.9°F 26.1°F 62% 30.13 in 10.0 miles Calm Calm - N/A   Clear
3:53 PM 36.0°F 26.1°F 67% 30.15 in 10.0 miles Calm Calm - N/A   Overcast
4:53 PM 28.9°F 24.1°F 82% 30.16 in 10.0 miles SSW 6.9 mph - N/A   Clear
5:53 PM 28.0°F 24.1°F 85% 30.18 in 10.0 miles SW 3.5 mph - N/A   Clear
6:53 PM 27.0°F 23.0°F 85% 30.19 in 10.0 miles Calm Calm - N/A   Clear
9:53 PM 28.9°F 21.9°F 75% 30.21 in 10.0 miles NW 5.8 mph - N/A   Clear
10:53 PM 26.1°F 21.0°F 81% 30.22 in 10.0 miles Calm Calm - N/A   Clear
11:53 PM 24.1°F 19.0°F 81% 30.24 in 10.0 miles NNE 3.5 mph - N/A   Clear
Moon Phase
Nov. 10 Nov. 13 Nov. 20 Nov. 28 Dec. 06
Sunrise:06:55 AM (PST) Moon Rise:02:53 AM (PST)11/10
Sunset:04:27 PM (PST) Moon Set:02:28 PM (PST)11/10

Copyright © 2014 The Weather Underground, Inc.